Morris, MN

10:53 AM CDT on July 24, 2017 (GMT -0500)
Morris Municipal

Weather History for KMOX - November, 2012

Change the Weather History Date:

Thursday, November 8, 2012

  Actual Average Record
Temperature  
Mean Temperature 42 °F -  
Max Temperature 51 °F 40 °F 75 °F (2006)
Min Temperature 33 °F 24 °F 3 °F (2003)
Degree Days  
Heating Degree Days 23    
Moisture  
Dew Point 35 °F    
Average Humidity 82    
Maximum Humidity 93    
Minimum Humidity 58    
Precipitation  
Precipitation 0.00 in - - ()
Sea Level Pressure  
Sea Level Pressure 29.93 in    
Wind  
Wind Speed 15 mph (NNE)    
Max Wind Speed 22 mph    
Max Gust Speed 29 mph    
Visibility 10 miles    
Events      
Averages and records for this station are not official NWS values.
T = Trace of Precipitation, MM = Missing Value Source: NWS Daily Summary

Daily Weather History Graph

Daily Weather History Graph

Search for Another Location

Airport or City:

Trip Planner

Search our weather history database for the weather conditions in past years. The results will help you decide how hot, cold, wet, or windy it might be!

Date:

Astronomy

Nov. 08, 2012 Rise Set
Actual Time 7:14 AM CST 5:00 PM CST
Civil Twilight 6:42 AM CST 5:32 PM CST
Nautical Twilight 6:06 AM CST 6:07 PM CST
Astronomical Twilight 5:32 AM CST 6:42 PM CST
Moon 12:53 AM CST (11/8) 1:57 PM CST (11/8)
Length of Visible Light 10h 49m
Length of Day
9h 46m
Waning Crescent, 32% of the Moon is Illuminated
Nov 8
Waning Crescent
Nov 13
New
Nov 20
First Quarter
Nov 28
Full
Dec 6
Last Quarter

Hourly Weather History & Observations

Time (CST) Temp. Windchill Dew Point Humidity Pressure Visibility Wind Dir Wind Speed Gust Speed Precip Events Conditions
12:09 AM 37.4 °F 27.5 °F 33.8 °F 87% 29.88 in 10.0 mi SE 18.4 mph 24.2 mph N/A   Clear
12:29 AM 37.4 °F 27.2 °F 33.8 °F 87% 29.88 in 10.0 mi SE 19.6 mph - N/A   Clear
12:49 AM 37.4 °F 27.5 °F 33.8 °F 87% 29.87 in 10.0 mi SE 18.4 mph 25.3 mph N/A   Clear
1:09 AM 37.4 °F 27.2 °F 33.8 °F 87% 29.86 in 10.0 mi SE 19.6 mph 26.5 mph N/A   Clear
1:29 AM 37.4 °F 27.2 °F 33.8 °F 87% 29.86 in 10.0 mi SE 19.6 mph 25.3 mph N/A   Clear
1:49 AM 37.4 °F 27.5 °F 33.8 °F 87% 29.85 in 10.0 mi SE 18.4 mph - N/A   Clear
2:09 AM 37.4 °F 27.8 °F 33.8 °F 87% 29.85 in 10.0 mi SE 17.3 mph 24.2 mph N/A   Clear
2:29 AM 35.6 °F 25.5 °F 32.0 °F 87% 29.85 in 10.0 mi SE 17.3 mph 21.9 mph N/A   Clear
2:49 AM 35.6 °F 25.9 °F 32.0 °F 87% 29.85 in 10.0 mi SE 16.1 mph - N/A   Clear
3:09 AM 35.6 °F 25.5 °F 32.0 °F 87% 29.85 in 10.0 mi SSE 17.3 mph - N/A   Clear
3:29 AM 35.6 °F 24.8 °F 32.0 °F 87% 29.83 in 10.0 mi SSE 19.6 mph - N/A   Clear
3:49 AM 35.6 °F 25.2 °F 32.0 °F 87% 29.81 in 10.0 mi SE 18.4 mph - N/A   Clear
4:09 AM 35.6 °F 25.5 °F 32.0 °F 87% 29.82 in 10.0 mi SE 17.3 mph - N/A   Clear
4:29 AM 35.6 °F 27.1 °F 32.0 °F 87% 29.85 in 10.0 mi SSE 12.7 mph - N/A   Clear
4:49 AM 33.8 °F 24.3 °F 30.2 °F 87% 29.84 in 10.0 mi SE 13.8 mph - N/A   Clear
5:09 AM 33.8 °F 24.3 °F 30.2 °F 87% 29.83 in 10.0 mi SSE 13.8 mph - N/A   Clear
5:29 AM 33.8 °F 25.3 °F 30.2 °F 87% 29.84 in 10.0 mi SE 11.5 mph 18.4 mph N/A   Clear
5:49 AM 33.8 °F 25.3 °F 30.2 °F 87% 29.85 in 10.0 mi SSE 11.5 mph - N/A   Clear
6:09 AM 33.8 °F 24.8 °F 30.2 °F 87% 29.84 in 10.0 mi SSE 12.7 mph - N/A   Clear
6:29 AM 33.8 °F 25.8 °F 30.2 °F 87% 29.85 in 10.0 mi SSE 10.4 mph - N/A   Clear
6:49 AM 33.8 °F 26.4 °F 30.2 °F 87% 29.85 in 10.0 mi SE 9.2 mph - N/A   Clear
7:09 AM 33.8 °F 27.0 °F 30.2 °F 87% 29.86 in 10.0 mi SSE 8.1 mph - N/A   Clear
7:29 AM 33.8 °F 26.4 °F 30.2 °F 87% 29.86 in 10.0 mi SE 9.2 mph - N/A   Clear
7:49 AM 33.8 °F 27.0 °F 32.0 °F 93% 29.87 in 10.0 mi SE 8.1 mph - N/A   Clear
8:09 AM 35.6 °F 28.6 °F 33.8 °F 93% 29.87 in 10.0 mi SSE 9.2 mph - N/A   Clear
8:29 AM 37.4 °F 30.3 °F 33.8 °F 87% 29.87 in 10.0 mi SSE 10.4 mph - N/A   Clear
8:49 AM 39.2 °F 33.6 °F 33.8 °F 81% 29.88 in 10.0 mi SSE 8.1 mph - N/A   Clear
9:09 AM 41.0 °F 35.8 °F 35.6 °F 81% 29.89 in 10.0 mi South 8.1 mph - N/A   Clear
9:29 AM 42.8 °F 39.3 °F 35.6 °F 76% 29.89 in 10.0 mi South 5.8 mph - N/A   Clear
9:49 AM 42.8 °F 39.3 °F 35.6 °F 76% 29.89 in 10.0 mi SSW 5.8 mph - N/A   Clear
10:09 AM 44.6 °F 40.7 °F 35.6 °F 71% 29.90 in 10.0 mi WSW 6.9 mph - N/A   Clear
10:29 AM 46.4 °F 42.4 °F 35.6 °F 66% 29.90 in 10.0 mi West 8.1 mph - N/A   Clear
10:49 AM 48.2 °F - 37.4 °F 66% 29.90 in 10.0 mi WNW 8.1 mph - N/A   Clear
11:09 AM 51.8 °F - 37.4 °F 58% 29.90 in 10.0 mi NW 10.4 mph - N/A   Clear
11:29 AM 51.8 °F - 37.4 °F 58% 29.90 in 10.0 mi NNW 15.0 mph - N/A   Clear
11:49 AM 50.0 °F - 37.4 °F 62% 29.90 in 10.0 mi NNW 17.3 mph - N/A   Clear
12:09 PM 46.4 °F 39.8 °F 37.4 °F 71% 29.91 in 10.0 mi NNW 16.1 mph - N/A   Clear
12:29 PM 48.2 °F - 37.4 °F 66% 29.91 in 10.0 mi NNW 17.3 mph 21.9 mph N/A   Clear
12:49 PM 48.2 °F - 39.2 °F 71% 29.92 in 10.0 mi NNW 19.6 mph 23.0 mph N/A   Clear
1:09 PM 48.2 °F - 39.2 °F 71% 29.93 in 10.0 mi NNW 18.4 mph 24.2 mph N/A   Scattered Clouds
1:29 PM 46.4 °F 38.5 °F 39.2 °F 76% 29.93 in 10.0 mi NNW 21.9 mph 26.5 mph N/A   Mostly Cloudy
1:49 PM 44.6 °F 36.6 °F 37.4 °F 76% 29.94 in 10.0 mi NNW 19.6 mph 25.3 mph N/A   Overcast
2:09 PM 44.6 °F 36.1 °F 37.4 °F 76% 29.94 in 10.0 mi NNW 21.9 mph 25.3 mph N/A   Overcast
2:29 PM 44.6 °F 36.1 °F 37.4 °F 76% 29.95 in 10.0 mi NNW 21.9 mph 25.3 mph N/A   Overcast
2:49 PM 44.6 °F 36.6 °F 37.4 °F 76% 29.95 in 10.0 mi NNW 19.6 mph 28.8 mph N/A   Mostly Cloudy
3:09 PM 44.6 °F 37.4 °F 37.4 °F 76% 29.96 in 10.0 mi NNW 16.1 mph 25.3 mph N/A   Overcast
3:29 PM 42.8 °F 34.8 °F 37.4 °F 81% 29.97 in 10.0 mi NNW 17.3 mph - N/A   Overcast
3:49 PM 42.8 °F 34.8 °F 37.4 °F 81% 29.98 in 10.0 mi North 17.3 mph - N/A   Overcast
4:09 PM 41.0 °F 32.8 °F 35.6 °F 81% 29.98 in 10.0 mi North 16.1 mph - N/A   Overcast
4:29 PM 41.0 °F 32.8 °F 35.6 °F 81% 29.99 in 10.0 mi North 16.1 mph - N/A   Overcast
4:49 PM 41.0 °F 32.5 °F 35.6 °F 81% 30.00 in 10.0 mi North 17.3 mph 21.9 mph N/A   Overcast
5:09 PM 41.0 °F 33.9 °F 35.6 °F 81% 30.00 in 10.0 mi North 12.7 mph 20.7 mph N/A   Overcast
5:29 PM 41.0 °F 35.2 °F 35.6 °F 81% 30.00 in 10.0 mi North 9.2 mph - N/A   Overcast
5:49 PM 41.0 °F 35.8 °F 35.6 °F 81% 30.01 in 10.0 mi North 8.1 mph - N/A   Overcast
6:09 PM 41.0 °F 34.7 °F 35.6 °F 81% 30.01 in 10.0 mi North 10.4 mph - N/A   Overcast
6:29 PM 39.2 °F 31.6 °F 35.6 °F 87% 30.01 in 10.0 mi North 12.7 mph 16.1 mph N/A   Overcast
6:49 PM 39.2 °F 31.2 °F 35.6 °F 87% 30.02 in 10.0 mi North 13.8 mph - N/A   Overcast
7:09 PM 39.2 °F 31.6 °F 35.6 °F 87% 30.02 in 10.0 mi North 12.7 mph - N/A   Overcast
7:29 PM 39.2 °F 32.5 °F 35.6 °F 87% 30.02 in 10.0 mi North 10.4 mph - N/A   Overcast
7:49 PM 39.2 °F 31.6 °F 35.6 °F 87% 30.01 in 10.0 mi North 12.7 mph 17.3 mph N/A   Overcast
8:09 PM 39.2 °F 32.0 °F 35.6 °F 87% 30.01 in 10.0 mi North 11.5 mph - N/A   Overcast
8:29 PM 39.2 °F 32.5 °F 35.6 °F 87% 30.02 in 10.0 mi North 10.4 mph - N/A   Overcast
8:49 PM 39.2 °F 33.0 °F 35.6 °F 87% 30.02 in 10.0 mi North 9.2 mph - N/A   Overcast
9:09 PM 39.2 °F 33.6 °F 35.6 °F 87% 30.02 in 10.0 mi North 8.1 mph - N/A   Overcast
9:29 PM 39.2 °F 34.2 °F 35.6 °F 87% 30.03 in 10.0 mi North 6.9 mph - N/A   Overcast
9:49 PM 39.2 °F 33.0 °F 35.6 °F 87% 30.03 in 10.0 mi North 9.2 mph - N/A   Overcast
10:09 PM 39.2 °F 34.2 °F 35.6 °F 87% 30.03 in 10.0 mi North 6.9 mph - N/A   Overcast
10:29 PM 39.2 °F 35.0 °F 35.6 °F 87% 30.02 in 10.0 mi North 5.8 mph - N/A   Overcast
10:49 PM 39.2 °F 35.9 °F 35.6 °F 87% 30.03 in 10.0 mi North 4.6 mph - N/A   Overcast
11:09 PM 39.2 °F 35.0 °F 35.6 °F 87% 30.03 in 10.0 mi North 5.8 mph - N/A   Overcast
11:29 PM 41.0 °F 37.1 °F 35.6 °F 81% 30.03 in 10.0 mi North 5.8 mph - N/A   Overcast
11:49 PM 41.0 °F 39.0 °F 35.6 °F 81% 30.04 in 10.0 mi NNE 3.5 mph - N/A   Overcast